ONEWEB-0552, 56054

Orbit data source: Space-Track

ONEWEB-0552, 56054 is a payload satellite owned by One Web (NAA) (UK) in LEO that was launched on Sun, 26 Mar 2023 UTC via a LVM3 launch vehicle from the Sirharikota (SRI). Payload-class satellites include a variety of spacecraft equipped with specific instruments for various scientific and technological missions. These include communications satellites like Starlink; space stations such as the ISS; scientific satellites like the Hubble; Earth observation satellites from companies like Planet Labs, Umbra, and HawkEye 360; GPS; miniature CubeSats for education and research; and military/defense satellites.

Loading next visibility...
Identifier
56054, 2023-043J
Orbit
LEO
Country
Flag of UKUK
Related business
Manufacturer
One Web
Mission
Operational Commercial Communications
Bus & Motor
ARROW, Unknown motor
Mass
148 kg wet, ~140 kg dry
Launch date (UTC)
2023-03-26 (3 years ago)
Launch vehicle
LVM3
Launch site
Sirharikota (SRI)
Object type
Payload
Rocket body
Debris
Shape & HBR
Trap Box + 2 Pan, 6.7 m
Radar Cross Section
3.464 m², Large (>1 m²)

Expand to show TLE details & history
Last TLE update: 2 days ago

TLE from 2 days ago
0 ONEWEB-0552
1 56054U 23043J   26171.47866517 -.00000240  00000-0 -61310-3 0  9995
2 56054  87.9251 243.3288 0001819 101.7983 258.3355 13.21825308158662
Epoch: 2026-06-20T11:29Z
TLE epoch observation values (Epoch: 2026-06-20T11:29:16.670Z)
Latitude
-0.00004°
Longitude
162.31663°
Altitude
1,180.939 km
Speed
7.263 km/s
True Right ascension
16h 13m 18s
True Declination
0° 00' 00"
Sunlit
Object was in full shadow at epoch
Visualization orbit readout
Latitude
Unknown
Longitude
Unknown
Altitude
Unknown
Speed
Unknown
Apparent Right ascension
Unknown
Apparent Declination
Unknown
Sunlit
N/A
Visualization observer readout
Local Sidereal Time
21:29:53
Azimuth
Unknown
Elevation
Unknown
Doppler factor
Unknown
Orbital elements
Apogee altitude
1,176.232 km
Perigee altitude
1,173.485 km
Semi-major axis
7,552.996 km
Eccentricity
0.00018
Inclination
87.9251°
RAAN
243.3288°
Arg. of periapsis
101.7983°
True anomaly
258.31509°
Mean anomaly
258.3355°
Eccentric anomaly
258.32529°
Mean motion
3.30647 °/min
Orbital period
108.88 mins
BSTAR
-0.0006131
Loading maneuver chart data...
Computing Atmospheric mass density...
Loading historical data...
Loading historical data...
Loading historical data...
Loading historical data...
Loading historical data...
Loading historical data...
Loading historical data...

Documentation

Showing up to 5 results
|